TimeCST,TemperatureF,Dew PointF,Humidity,Sea Level PressureIn,VisibilityMPH,Wind Direction,Wind SpeedMPH,Gust SpeedMPH,PrecipitationIn,Events,Conditions,WindDirDegrees,DateUTC
12:54 AM,45.0,36.0,71,30.13,10.0,Calm,Calm,-,N/A,,Clear,0,2013-03-04 06:54:00
1:54 AM,45.0,37.9,76,30.82,10.0,Variable,3.5,-,N/A,,Clear,0,2013-03-04 07:54:00
2:54 AM,45.0,39.0,80,30.80,10.0,Variable,3.5,-,N/A,,Clear,0,2013-03-04 08:54:00
3:54 AM,48.0,41.0,77,30.05,10.0,South,6.9,-,N/A,,Clear,180,2013-03-04 09:54:00
4:54 AM,48.0,42.1,80,30.04,10.0,Variable,3.5,-,N/A,,Clear,0,2013-03-04 10:54:00
5:54 AM,48.9,44.1,83,30.03,10.0,Calm,Calm,-,N/A,,Clear,0,2013-03-04 11:54:00
6:54 AM,51.1,46.0,83,30.74,10.0,Variable,4.6,19.6,N/A,,Clear,0,2013-03-04 12:54:00
7:54 AM,54.0,48.0,80,30.76,10.0,Variable,4.6,-,N/A,,Clear,0,2013-03-04 13:54:00
8:54 AM,61.0,51.1,70,30.03,10.0,Variable,5.8,-,N/A,,Scattered Clouds,0,2013-03-04 14:54:00
9:03 AM,60.8,51.8,72,29.94,10.0,Variable,6.9,-,N/A,,Mostly Cloudy,0,2013-03-04 15:03:00
9:26 AM,64.4,51.8,64,29.93,10.0,South,9.2,20.7,N/A,,Scattered Clouds,180,2013-03-04 15:26:00
9:54 AM,66.0,53.1,63,30.00,10.0,South,8.1,19.6,N/A,,Mostly Cloudy,190,2013-03-04 15:54:00
10:52 AM,69.8,53.6,56,29.91,10.0,South,11.5,31.1,N/A,,Mostly Cloudy,180,2013-03-04 16:52:00
10:54 AM,70.0,53.1,55,29.99,10.0,South,10.4,31.1,N/A,,Mostly Cloudy,180,2013-03-04 16:54:00
11:54 AM,72.0,53.1,51,29.98,10.0,SSW,10.4,24.2,N/A,,Mostly Cloudy,200,2013-03-04 17:54:00
12:54 PM,73.9,53.1,48,29.94,10.0,SSW,12.7,26.5,N/A,,Mostly Cloudy,210,2013-03-04 18:54:00
1:54 PM,73.9,53.1,48,29.91,10.0,South,11.5,25.3,N/A,,Mostly Cloudy,190,2013-03-04 19:54:00
2:54 PM,73.0,54.0,51,29.90,10.0,SSW,10.4,25.3,N/A,,Mostly Cloudy,200,2013-03-04 20:54:00
3:54 PM,72.0,54.0,53,29.89,10.0,SSW,9.2,25.3,N/A,,Partly Cloudy,210,2013-03-04 21:54:00
4:54 PM,71.1,55.0,57,29.88,10.0,Variable,5.8,19.6,N/A,,Scattered Clouds,0,2013-03-04 22:54:00
5:54 PM,69.1,55.0,61,29.88,10.0,South,11.5,21.9,N/A,,Partly Cloudy,190,2013-03-04 23:54:00
6:54 PM,68.0,57.0,68,29.89,10.0,SSW,10.4,16.1,N/A,,Partly Cloudy,200,2013-03-05 00:54:00
7:54 PM,66.9,57.0,70,29.90,10.0,Variable,6.9,-,N/A,,Clear,0,2013-03-05 01:54:00
8:54 PM,66.0,57.9,75,29.90,10.0,Variable,6.9,-,N/A,,Partly Cloudy,0,2013-03-05 02:54:00
9:54 PM,64.9,57.9,78,29.91,10.0,South,8.1,-,N/A,,Mostly Cloudy,190,2013-03-05 03:54:00
10:54 PM,64.0,57.9,80,29.92,10.0,Variable,4.6,-,N/A,,Overcast,0,2013-03-05 04:54:00
11:54 PM,64.0,59.0,84,29.91,10.0,Variable,6.9,-,N/A,,Scattered Clouds,0,2013-03-05 05:54:00